[[{"header":{"parameterUnit":"m.s-1","parameterCategory":1,"la1":30.2991,"la2":30.254,"lo1":-89.0895,"lo2":-89.0444,"dy":0.0017,"dx":0.0017,"nx":28,"ny":28,"refTime":"2024-07-10T21:00:00:Z","depth":0,"parameterNumber":2,"parameterNumberName":"U-component_of_WINDS"},"data":[0,0,0,0,0,0,0,0,0,0,0,0,0,0,0,0,0,0,0,0,0,0,0,0,0,0,0,0,0,0,0,0,0,0,0,0,0,0,0,0,0,0,0,0,0,0,0,0,0,0,0,0,0,0,0,0,0,0,2.4994,2.4994,0,2.5027,2.5028,2.5028,2.4999,2.4997,2.4996,2.4995,2.5027,2.5029,2.5031,0,0,0,0,0,0,0,0,0,0,0,0,0,2.4906,2.4907,2.4994,2.4995,2.4995,2.5027,2.5028,2.5028,2.4999,2.4997,2.4996,2.4995,2.5027,2.5029,2.5031,0,0,0,0,0,0,0,0,0,0,0,0,0,2.4942,2.4908,2.4994,2.4984,2.4984,2.5027,2.5028,2.5028,2.4999,2.4997,2.4995,2.4994,2.5026,2.5029,2.5032,2.5086,0,0,2.5041,2.5042,0,0,0,0,0,0,0,0,2.494,2.4945,2.4985,2.4985,2.4984,2.5007,2.5008,2.5047,2.5,2.4993,2.4995,2.4993,2.5022,2.5025,2.5035,2.5087,2.5089,2.5041,2.5043,2.5044,2.5045,0,0,0,0,0,0,0,2.4937,2.4944,2.5007,2.4986,2.4985,2.4978,2.4981,2.5015,2.5017,2.4994,2.4992,2.4996,2.5021,2.5032,2.5036,2.5089,2.5041,2.5044,2.5045,2.5047,2.519,2.5192,0,0,0,0,0,0,2.4936,2.4942,2.5006,2.5008,2.4957,2.4981,2.4985,2.5002,2.5017,2.5017,2.4997,2.4994,2.5028,2.5032,2.5037,2.5103,2.5044,2.5047,2.5049,2.5188,2.519,2.5193,0,0,0,0,0,0,2.4934,2.4942,2.5005,2.4974,2.4982,2.4985,2.5004,2.5003,2.5014,2.502,2.502,2.5009,2.5027,2.5033,2.5075,2.5103,2.5048,2.5051,2.5186,2.5189,2.5192,2.5234,0,0,0,0,0,0,2.4932,2.4942,2.4962,2.4975,2.4984,2.5042,2.5005,2.5005,2.502,2.5016,2.503,2.5031,2.5026,2.507,2.5078,2.5106,2.5053,2.5183,2.5187,2.5191,2.523,2.5238,2.5245,0,0,0,0,0,2.4929,2.4972,2.4963,2.4971,2.5009,2.5044,2.5049,2.5043,2.5022,2.5043,2.5047,2.503,2.5099,2.5075,2.5083,2.5113,2.5181,2.5186,2.519,2.5227,2.5237,2.5245,0,0,0,0,0,0,2.4961,2.4973,2.4964,2.5012,2.5028,2.5039,2.5065,2.5053,2.5074,2.507,2.5061,2.5065,2.5109,2.5115,2.5088,2.5167,2.5137,2.5143,2.5162,2.5171,2.5179,2.5177,2.5056,0,0,0,0,0,2.4974,2.5001,2.501,2.5052,2.506,2.5062,2.5076,2.5071,2.5086,2.5092,2.5098,2.5113,2.5139,2.5155,2.5178,2.5231,2.5235,2.5256,2.5264,2.527,2.5275,2.5306,2.5316,2.5208,2.5208,2.5208,0,0,2.5,2.501,2.5028,2.5059,2.507,2.5099,2.5067,2.5098,2.5119,2.5096,2.5137,2.5143,2.5159,2.5207,2.5228,2.5213,2.5306,2.5276,2.528,2.5283,2.5311,2.5322,2.5331,2.5211,2.521,2.521,0,0,2.5064,2.5074,2.5111,2.5123,2.5141,2.5141,2.5151,2.5164,2.5168,2.5209,2.5192,2.5218,2.5261,2.5274,2.5286,2.5357,2.5343,2.5364,2.5404,2.5433,2.5442,2.5449,2.5476,2.5486,2.537,2.537,2.537,0,2.5094,2.5137,2.5131,2.5165,2.5179,2.5161,2.5199,2.5211,2.5235,2.5246,2.5228,2.5284,2.5293,2.5345,2.5363,2.5373,2.5384,2.5363,2.5441,2.5449,2.5456,2.5481,2.5491,2.5373,2.5373,2.5372,2.5372,0,2.5175,2.5205,2.5233,2.5258,2.5276,2.5311,2.5311,2.533,2.5324,2.5327,2.5369,2.538,2.5407,2.5418,2.5412,2.547,2.546,2.5442,2.5411,2.5469,2.5492,2.5502,2.5377,2.5376,2.5375,2.5374,0,0,2.5258,2.5281,2.5292,2.5304,2.5323,2.5346,2.5382,2.5408,2.5425,2.5443,2.5473,2.5511,2.5495,2.5509,2.5504,2.553,2.5588,2.5509,2.5509,2.5524,2.5654,2.5668,2.568,2.5579,2.558,2.5582,2.5653,0,2.5323,2.5385,2.5382,2.544,2.5469,2.5453,2.5484,2.5499,2.5503,2.5528,2.5532,2.556,2.5536,2.5545,2.557,2.5575,2.5614,2.557,2.5607,2.5608,2.5604,2.5692,2.5706,2.5773,2.5662,2.5664,2.5665,0,2.5407,2.543,2.5491,2.5508,2.552,2.5548,2.5573,2.5597,2.5615,2.5616,2.5633,2.5624,2.566,2.5629,2.5679,2.565,2.5665,2.567,2.5672,2.5676,2.564,2.5699,2.5794,2.5805,2.5679,2.5678,2.5677,0,2.5464,2.5509,2.5552,2.5563,2.5583,2.5604,2.5613,2.5629,2.5646,2.5668,2.5679,2.5705,2.5719,2.5739,2.5738,2.5715,2.579,2.5758,2.5792,2.5793,2.5809,2.5808,2.5909,2.5818,2.5817,2.5817,2.5817,0,2.5537,2.5576,2.5578,2.5605,2.5648,2.5644,2.5687,2.5694,2.5709,2.5737,2.5724,2.5751,2.5747,2.5774,2.5773,2.5816,2.5822,2.5825,2.5824,2.5826,2.5826,2.5836,2.5832,2.582,2.5819,2.5819,2.5818,0,2.5608,2.5611,2.5657,2.5673,2.5678,2.571,2.5724,2.5749,2.5753,2.5789,2.5797,2.5803,2.5834,2.5835,2.587,2.5869,2.5922,2.5916,2.5917,2.5916,2.5951,2.5948,2.6063,2.6078,2.5976,2.5977,2.5977,0,2.5655,2.5684,2.5705,2.5723,2.5734,2.5764,2.5782,2.5779,2.5798,2.5822,2.5845,2.5875,2.5899,2.595,2.5957,2.5985,2.598,2.6018,2.5984,2.5986,2.5982,2.598,2.5984,2.6025,2.6026,2.6027,2.6028,0,2.5739,2.5739,2.5766,2.5794,2.5816,2.5837,2.5857,2.5873,2.5873,2.5895,2.5928,2.5947,2.5984,2.6014,2.6042,2.6051,2.604,2.6039,2.6048,2.6051,2.6051,2.6053,2.5936,2.6036,2.6035,2.6034,2.6034,2.6034,2.5799,2.5826,2.5845,2.5876,2.5891,2.591,2.5936,2.5943,2.5971,2.6001,2.5998,2.6035,2.6053,2.6089,2.6101,2.6129,2.6116,2.613,2.6133,2.6137,2.6142,2.6046,2.6134,2.6134,2.6134,2.6134,2.6133,0,2.5884,2.5896,2.5924,2.5953,2.5978,2.5966,2.5988,2.6009,2.6042,2.606,2.6085,2.6123,2.6153,2.6164,2.6193,2.6214,2.621,2.6222,2.6221,2.6223,2.6151,2.614,2.6225,2.6225,2.6225,2.6225,2.6225,2.6225,2.5931,2.5975,2.5979,2.6031,2.6043,2.6079,2.6093,2.6111,2.6126,2.617,2.6195,2.6202,2.6218,2.6248,2.6276,2.6278,2.629,2.6305,2.6305,2.6237,2.6228,2.6219,2.6209,2.6307,2.6307,2.6375,2.6375,2.6376]},{"header":{"parameterUnit":"m.s-1","parameterCategory":1,"la1":30.2991,"la2":30.254,"lo1":-89.0895,"lo2":-89.0444,"dy":0.0017,"dx":0.0017,"nx":28,"ny":28,"refTime":"2024-07-10T21:00:00:Z","depth":0,"parameterNumber":3,"parameterNumberName":"V-component_of_WINDS"},"data":[0,0,0,0,0,0,0,0,0,0,0,0,0,0,0,0,0,0,0,0,0,0,0,0,0,0,0,0,0,0,0,0,0,0,0,0,0,0,0,0,0,0,0,0,0,0,0,0,0,0,0,0,0,0,0,0,0,0,-1.6132,-1.6132,0,-1.6103,-1.6102,-1.6102,-1.6058,-1.6057,-1.6056,-1.6055,-1.6024,-1.6024,-1.6024,0,0,0,0,0,0,0,0,0,0,0,0,0,-1.6151,-1.6151,-1.6132,-1.6132,-1.6132,-1.6103,-1.6102,-1.6102,-1.6058,-1.6057,-1.6056,-1.6055,-1.6024,-1.6024,-1.6024,0,0,0,0,0,0,0,0,0,0,0,0,0,-1.6135,-1.6151,-1.6133,-1.6106,-1.6104,-1.6103,-1.6102,-1.6102,-1.6058,-1.6057,-1.6056,-1.6055,-1.6024,-1.6024,-1.6024,-1.6046,0,0,-1.6023,-1.6023,0,0,0,0,0,0,0,0,-1.6136,-1.6134,-1.6111,-1.6108,-1.6105,-1.6083,-1.6097,-1.6083,-1.6058,-1.6075,-1.6055,-1.6054,-1.6044,-1.6042,-1.6039,-1.6044,-1.6043,-1.6023,-1.6023,-1.6023,-1.6023,0,0,0,0,0,0,0,-1.6137,-1.6135,-1.6121,-1.611,-1.6107,-1.6096,-1.6092,-1.6094,-1.6067,-1.6074,-1.6071,-1.6068,-1.6043,-1.604,-1.6038,-1.6042,-1.6023,-1.6023,-1.6023,-1.6023,-1.6066,-1.6067,0,0,0,0,0,0,-1.6142,-1.6136,-1.6122,-1.612,-1.6118,-1.6097,-1.6093,-1.6091,-1.6067,-1.6062,-1.6069,-1.6066,-1.604,-1.6039,-1.6037,-1.6062,-1.6023,-1.6023,-1.6023,-1.6064,-1.6066,-1.6067,0,0,0,0,0,0,-1.6142,-1.6141,-1.6123,-1.6127,-1.6124,-1.6098,-1.6096,-1.6091,-1.6088,-1.6063,-1.6057,-1.6071,-1.6039,-1.6037,-1.6044,-1.606,-1.6023,-1.6022,-1.6063,-1.6065,-1.6066,-1.6112,0,0,0,0,0,0,-1.6143,-1.6141,-1.6149,-1.6128,-1.6124,-1.6131,-1.6097,-1.6091,-1.6088,-1.6084,-1.6063,-1.6059,-1.6038,-1.6045,-1.6044,-1.606,-1.6022,-1.6061,-1.6064,-1.6066,-1.6109,-1.6116,-1.6121,0,0,0,0,0,-1.6144,-1.6163,-1.615,-1.6149,-1.6133,-1.6132,-1.6129,-1.6106,-1.6089,-1.6097,-1.6081,-1.6059,-1.6059,-1.6046,-1.6045,-1.606,-1.606,-1.6063,-1.6066,-1.6107,-1.6114,-1.6121,0,0,0,0,0,0,-1.6186,-1.6159,-1.6145,-1.6157,-1.6147,-1.6124,-1.6133,-1.6115,-1.6109,-1.6105,-1.6076,-1.6072,-1.6083,-1.6072,-1.6058,-1.6081,-1.6056,-1.6059,-1.6088,-1.6095,-1.6101,-1.6103,-1.6022,0,0,0,0,0,-1.6197,-1.6199,-1.6175,-1.6188,-1.6184,-1.616,-1.6158,-1.6141,-1.6129,-1.6125,-1.6109,-1.6098,-1.6096,-1.6095,-1.6091,-1.6108,-1.6103,-1.6118,-1.6124,-1.6129,-1.6131,-1.6141,-1.6148,-1.6076,-1.6076,-1.6076,0,0,-1.622,-1.6205,-1.6207,-1.6196,-1.6186,-1.6188,-1.6156,-1.6159,-1.6161,-1.6125,-1.6131,-1.612,-1.6106,-1.6118,-1.6123,-1.6109,-1.615,-1.6132,-1.6136,-1.6136,-1.6144,-1.6151,-1.6157,-1.6078,-1.6078,-1.6078,0,0,-1.6262,-1.625,-1.6261,-1.6252,-1.6238,-1.6222,-1.6225,-1.6205,-1.6196,-1.6202,-1.6176,-1.6177,-1.6173,-1.6165,-1.616,-1.6201,-1.6181,-1.62,-1.6231,-1.624,-1.6246,-1.6251,-1.6266,-1.6272,-1.6203,-1.6203,-1.6203,0,-1.6291,-1.6293,-1.6268,-1.6274,-1.627,-1.6239,-1.625,-1.6242,-1.6228,-1.6226,-1.6211,-1.6207,-1.6195,-1.6206,-1.6216,-1.6213,-1.6216,-1.6202,-1.6247,-1.6252,-1.6256,-1.6271,-1.6276,-1.6206,-1.6206,-1.6205,-1.6205,0,-1.633,-1.6332,-1.6342,-1.633,-1.6328,-1.6336,-1.6313,-1.6313,-1.6297,-1.6283,-1.629,-1.6275,-1.6269,-1.627,-1.6253,-1.6279,-1.6271,-1.6253,-1.6227,-1.6266,-1.6279,-1.6284,-1.621,-1.6209,-1.6208,-1.6207,0,0,-1.6397,-1.6372,-1.6376,-1.6371,-1.6354,-1.6355,-1.6362,-1.6357,-1.6358,-1.6349,-1.6355,-1.6353,-1.6337,-1.6331,-1.6314,-1.6322,-1.6357,-1.6303,-1.6302,-1.6314,-1.6385,-1.64,-1.6407,-1.6344,-1.6345,-1.6346,-1.6387,0,-1.6436,-1.6447,-1.6426,-1.6442,-1.6444,-1.6415,-1.6421,-1.6412,-1.6399,-1.6399,-1.6385,-1.6385,-1.6362,-1.6359,-1.6366,-1.6352,-1.6371,-1.6348,-1.6349,-1.635,-1.6354,-1.6413,-1.6428,-1.6468,-1.6392,-1.6393,-1.6393,0,-1.6482,-1.6477,-1.6494,-1.6477,-1.6477,-1.6483,-1.6477,-1.6477,-1.6467,-1.6457,-1.6452,-1.6433,-1.6439,-1.6414,-1.6423,-1.6408,-1.6407,-1.6401,-1.6401,-1.6401,-1.6374,-1.6415,-1.648,-1.6486,-1.6401,-1.64,-1.64,0,-1.653,-1.6527,-1.6537,-1.6533,-1.6514,-1.6519,-1.6512,-1.65,-1.6498,-1.6493,-1.6492,-1.6487,-1.6485,-1.6482,-1.6462,-1.6446,-1.6473,-1.6447,-1.6466,-1.6467,-1.6473,-1.6473,-1.654,-1.6472,-1.6472,-1.6472,-1.6472,0,-1.6576,-1.6587,-1.6559,-1.6565,-1.6577,-1.6553,-1.6566,-1.6555,-1.6546,-1.6549,-1.6524,-1.6528,-1.6501,-1.6503,-1.6487,-1.6497,-1.6496,-1.6489,-1.6485,-1.6492,-1.6493,-1.6491,-1.6488,-1.6473,-1.6473,-1.6473,-1.6473,0,-1.6631,-1.6612,-1.6622,-1.6603,-1.6599,-1.6609,-1.6594,-1.6599,-1.6585,-1.6591,-1.659,-1.6569,-1.657,-1.655,-1.6546,-1.6535,-1.6553,-1.6543,-1.6557,-1.6554,-1.6574,-1.6573,-1.6642,-1.6651,-1.6578,-1.6578,-1.6579,0,-1.6662,-1.667,-1.6653,-1.6654,-1.6648,-1.665,-1.6649,-1.6626,-1.6626,-1.6615,-1.6622,-1.6621,-1.6618,-1.6621,-1.6605,-1.6603,-1.6593,-1.6618,-1.6592,-1.66,-1.6594,-1.6595,-1.6596,-1.6623,-1.6624,-1.6625,-1.6625,0,-1.6718,-1.6709,-1.6708,-1.6705,-1.6704,-1.67,-1.6695,-1.6697,-1.6672,-1.6674,-1.6674,-1.6673,-1.667,-1.6669,-1.6664,-1.6656,-1.6637,-1.6634,-1.6638,-1.6645,-1.6653,-1.665,-1.6572,-1.6632,-1.6631,-1.6631,-1.663,-1.663,-1.6762,-1.6769,-1.6759,-1.6759,-1.6753,-1.6749,-1.6753,-1.6741,-1.6741,-1.6738,-1.6724,-1.6728,-1.6718,-1.6709,-1.6703,-1.6706,-1.6694,-1.67,-1.6702,-1.6704,-1.6708,-1.6653,-1.6705,-1.6705,-1.6704,-1.6704,-1.6704,0,-1.6818,-1.6811,-1.6811,-1.6805,-1.6806,-1.6788,-1.6782,-1.6784,-1.6787,-1.678,-1.6779,-1.6781,-1.678,-1.6765,-1.6763,-1.6769,-1.676,-1.6769,-1.6768,-1.6767,-1.6718,-1.6715,-1.6776,-1.6776,-1.6776,-1.6776,-1.6776,-1.6776,-1.6847,-1.6858,-1.6848,-1.6856,-1.6848,-1.6852,-1.685,-1.6846,-1.6841,-1.6844,-1.6844,-1.6834,-1.6824,-1.6822,-1.6821,-1.6817,-1.6818,-1.683,-1.6823,-1.6777,-1.677,-1.6764,-1.6761,-1.683,-1.683,-1.6871,-1.6872,-1.6872]}]]